User: anonymous   Login
Location: Estes Park
(40.3770°N, 105.5210°W)
Time: 11:43:35
(UTC-07:00)
Language:

ITAMSAT 1 - Orbit

View from above orbital plane
View from above orbital plane
View from above satellite
View from above satellite

Ground track
Ground track

The orbit data is extracted from the following two-line orbital elements,

1 22826U 93061D   19020.92641270 -.00000010 +00000-0 +13922-4 0  9995
2 22826 098.8831 006.2900 0009892 064.3762 295.8441 14.30382211320634
Epoch (UTC): 20 January 2019 22:14:02
Eccentricity: 0.0009892
inclination: 98.8831°
perigee height: 783 km
apogee height: 797 km
right ascension of ascending node: 6.2900°
argument of perigee: 64.3762°
revolutions per day: 14.30382211
mean anomaly at epoch: 295.8441°
orbit number at epoch: 32063

The dashed part of the orbit path shows where the satellite is in the earth's shadow,  

DLR